Year,Month,Day,Hour,Minute,Value (Times are PST for temperature in C)
2017,06,25,00,00,17.40
2017,06,25,00,01,17.40
2017,06,25,00,02,17.30
2017,06,25,00,03,17.30
2017,06,25,00,04,17.30
2017,06,25,00,05,17.30
2017,06,25,00,06,17.30
2017,06,25,00,07,17.30
2017,06,25,00,08,17.30
2017,06,25,00,09,17.30
2017,06,25,00,10,17.40
2017,06,25,00,11,17.40
2017,06,25,00,12,17.50
2017,06,25,00,13,17.60
2017,06,25,00,14,17.60
2017,06,25,00,15,17.60
2017,06,25,00,16,17.60
2017,06,25,00,17,17.70
2017,06,25,00,18,17.70
2017,06,25,00,19,17.70
2017,06,25,00,20,17.70
2017,06,25,00,21,17.70
2017,06,25,00,22,17.70
2017,06,25,00,23,17.70
2017,06,25,00,24,17.70
2017,06,25,00,25,17.70
2017,06,25,00,26,17.80
2017,06,25,00,27,17.80
2017,06,25,00,28,17.80
2017,06,25,00,29,17.80
2017,06,25,00,30,17.80
2017,06,25,00,31,17.80
2017,06,25,00,32,17.80
2017,06,25,00,33,17.80
2017,06,25,00,34,17.70
2017,06,25,00,35,17.70
2017,06,25,00,36,17.70
2017,06,25,00,37,17.60
2017,06,25,00,38,17.60
2017,06,25,00,39,17.60
2017,06,25,00,40,17.50
2017,06,25,00,41,17.50
2017,06,25,00,42,17.40
2017,06,25,00,43,17.40
2017,06,25,00,44,17.30
2017,06,25,00,45,17.30
2017,06,25,00,46,17.20
2017,06,25,00,47,17.10
2017,06,25,00,48,17.10
2017,06,25,00,49,17.00
2017,06,25,00,50,17.00
2017,06,25,00,51,16.90
2017,06,25,00,52,16.90
2017,06,25,00,53,16.80
2017,06,25,00,54,16.70
2017,06,25,00,55,16.60
2017,06,25,00,56,16.50
2017,06,25,00,57,16.40
2017,06,25,00,58,16.30
2017,06,25,00,59,16.20
2017,06,25,01,00,16.20
2017,06,25,01,01,16.10
2017,06,25,01,02,16.00
2017,06,25,01,03,15.90
2017,06,25,01,04,15.90
2017,06,25,01,05,15.80
2017,06,25,01,06,15.80
2017,06,25,01,07,15.80
2017,06,25,01,08,15.70
2017,06,25,01,09,15.70
2017,06,25,01,10,15.70
2017,06,25,01,11,15.70
2017,06,25,01,12,15.70
2017,06,25,01,13,15.70
2017,06,25,01,14,15.60
2017,06,25,01,15,15.60
2017,06,25,01,16,15.60
2017,06,25,01,17,15.60
2017,06,25,01,18,15.50
2017,06,25,01,19,15.50
2017,06,25,01,20,15.50
2017,06,25,01,21,15.50
2017,06,25,01,22,15.40
2017,06,25,01,23,15.40
2017,06,25,01,24,15.40
2017,06,25,01,25,15.30
2017,06,25,01,26,15.30
2017,06,25,01,27,15.30
2017,06,25,01,28,15.30
2017,06,25,01,29,15.30
2017,06,25,01,30,15.20
2017,06,25,01,31,15.20
2017,06,25,01,32,15.20
2017,06,25,01,33,15.20
2017,06,25,01,34,15.20
2017,06,25,01,35,15.20
2017,06,25,01,36,15.30
2017,06,25,01,37,15.40
2017,06,25,01,38,15.50
2017,06,25,01,39,15.60
2017,06,25,01,40,15.70
2017,06,25,01,41,15.70
2017,06,25,01,42,15.70
2017,06,25,01,43,15.80
2017,06,25,01,44,15.80
2017,06,25,01,45,15.70
2017,06,25,01,46,15.70
2017,06,25,01,47,15.60
2017,06,25,01,48,15.60
2017,06,25,01,49,15.50
2017,06,25,01,50,15.40
2017,06,25,01,51,15.30
2017,06,25,01,52,15.20
2017,06,25,01,53,15.10
2017,06,25,01,54,15.00
2017,06,25,01,55,15.00
2017,06,25,01,56,15.00
2017,06,25,01,57,15.00
2017,06,25,01,58,15.00
2017,06,25,01,59,15.00
2017,06,25,02,00,15.00
2017,06,25,02,01,15.00
2017,06,25,02,02,15.00
2017,06,25,02,03,15.00
2017,06,25,02,04,15.00
2017,06,25,02,05,15.00
2017,06,25,02,06,15.00
2017,06,25,02,07,15.00
2017,06,25,02,08,14.90
2017,06,25,02,09,14.80
2017,06,25,02,10,14.80
2017,06,25,02,11,14.80
2017,06,25,02,12,14.70
2017,06,25,02,13,14.80
2017,06,25,02,14,14.80
2017,06,25,02,15,14.80
2017,06,25,02,16,14.80
2017,06,25,02,17,14.80
2017,06,25,02,18,14.80
2017,06,25,02,19,14.80
2017,06,25,02,20,14.80
2017,06,25,02,21,14.80
2017,06,25,02,22,14.80
2017,06,25,02,23,14.70
2017,06,25,02,24,14.70
2017,06,25,02,25,14.60
2017,06,25,02,26,14.60
2017,06,25,02,27,14.50
2017,06,25,02,28,14.50
2017,06,25,02,29,14.40
2017,06,25,02,30,14.40
2017,06,25,02,31,14.40
2017,06,25,02,32,14.40
2017,06,25,02,33,14.40
2017,06,25,02,34,14.40
2017,06,25,02,35,14.40
2017,06,25,02,36,14.40
2017,06,25,02,37,14.50
2017,06,25,02,38,14.50
2017,06,25,02,39,14.60
2017,06,25,02,40,14.60
2017,06,25,02,41,14.60
2017,06,25,02,42,14.60
2017,06,25,02,43,14.60
2017,06,25,02,44,14.50
2017,06,25,02,45,14.40
2017,06,25,02,46,14.40
2017,06,25,02,47,14.30
2017,06,25,02,48,14.30
2017,06,25,02,49,14.30
2017,06,25,02,50,14.30
2017,06,25,02,51,14.30
2017,06,25,02,52,14.40
2017,06,25,02,53,14.40
2017,06,25,02,54,14.40
2017,06,25,02,55,14.40
2017,06,25,02,56,14.40
2017,06,25,02,57,14.40
2017,06,25,02,58,14.40
2017,06,25,02,59,14.40
2017,06,25,03,00,14.30
2017,06,25,03,01,14.30
2017,06,25,03,02,14.30
2017,06,25,03,03,14.30
2017,06,25,03,04,14.20
2017,06,25,03,05,14.20
2017,06,25,03,06,14.20
2017,06,25,03,07,14.20
2017,06,25,03,08,14.20
2017,06,25,03,09,14.20
2017,06,25,03,10,14.30
2017,06,25,03,11,14.30
2017,06,25,03,12,14.20
2017,06,25,03,13,14.10
2017,06,25,03,14,14.00
2017,06,25,03,15,14.00
2017,06,25,03,16,13.90
2017,06,25,03,17,13.90
2017,06,25,03,18,13.80
2017,06,25,03,19,13.80
2017,06,25,03,20,13.80
2017,06,25,03,21,13.80
2017,06,25,03,22,13.80
2017,06,25,03,23,13.80
2017,06,25,03,24,13.80
2017,06,25,03,25,13.80
2017,06,25,03,26,13.80
2017,06,25,03,27,13.80
2017,06,25,03,28,13.80
2017,06,25,03,29,13.80
2017,06,25,03,30,13.80
2017,06,25,03,31,13.70
2017,06,25,03,32,13.70
2017,06,25,03,33,13.70
2017,06,25,03,34,13.70
2017,06,25,03,35,13.70
2017,06,25,03,36,13.70
2017,06,25,03,37,13.70
2017,06,25,03,38,13.70
2017,06,25,03,39,13.70
2017,06,25,03,40,13.70
2017,06,25,03,41,13.60
2017,06,25,03,42,13.60
2017,06,25,03,43,13.60
2017,06,25,03,44,13.60
2017,06,25,03,45,13.60
2017,06,25,03,46,13.60
2017,06,25,03,47,13.60
2017,06,25,03,48,13.50
2017,06,25,03,49,13.50
2017,06,25,03,50,13.40
2017,06,25,03,51,13.40
2017,06,25,03,52,13.40
2017,06,25,03,53,13.40
2017,06,25,03,54,13.40
2017,06,25,03,55,13.40
2017,06,25,03,56,13.40
2017,06,25,03,57,13.40
2017,06,25,03,58,13.40
2017,06,25,03,59,13.40
2017,06,25,04,00,13.50
2017,06,25,04,01,13.50
2017,06,25,04,02,13.60
2017,06,25,04,03,13.60
2017,06,25,04,04,13.60
2017,06,25,04,05,13.60
2017,06,25,04,06,13.60
2017,06,25,04,07,13.60
2017,06,25,04,08,13.60
2017,06,25,04,09,13.70
2017,06,25,04,10,13.70
2017,06,25,04,11,13.70
2017,06,25,04,12,13.70
2017,06,25,04,13,13.70
2017,06,25,04,14,13.70
2017,06,25,04,15,13.80
2017,06,25,04,16,13.90
2017,06,25,04,17,13.90
2017,06,25,04,18,13.90
2017,06,25,04,19,13.90
2017,06,25,04,20,13.80
2017,06,25,04,21,13.80
2017,06,25,04,22,13.70
2017,06,25,04,23,13.60
2017,06,25,04,24,13.50
2017,06,25,04,25,13.40
2017,06,25,04,26,13.40
2017,06,25,04,27,13.30
2017,06,25,04,28,13.30
2017,06,25,04,29,13.20
2017,06,25,04,30,13.10
2017,06,25,04,31,13.10
2017,06,25,04,32,13.10
2017,06,25,04,33,13.10
2017,06,25,04,34,13.10
2017,06,25,04,35,13.10
2017,06,25,04,36,13.10
2017,06,25,04,37,13.10
2017,06,25,04,38,13.10
2017,06,25,04,39,13.00
2017,06,25,04,40,13.00
2017,06,25,04,41,13.00
2017,06,25,04,42,12.90
2017,06,25,04,43,12.90
2017,06,25,04,44,12.90
2017,06,25,04,45,12.90
2017,06,25,04,46,12.90
2017,06,25,04,47,12.90
2017,06,25,04,48,12.90
2017,06,25,04,49,12.90
2017,06,25,04,50,12.90
2017,06,25,04,51,12.90
2017,06,25,04,52,12.90
2017,06,25,04,53,12.90
2017,06,25,04,54,12.90
2017,06,25,04,55,13.00
2017,06,25,04,56,13.00
2017,06,25,04,57,13.10
2017,06,25,04,58,13.10
2017,06,25,04,59,13.10
2017,06,25,05,00,13.10
2017,06,25,05,01,13.10
2017,06,25,05,02,13.10
2017,06,25,05,03,13.10
2017,06,25,05,04,13.10
2017,06,25,05,05,13.10
2017,06,25,05,06,13.10
2017,06,25,05,07,13.10
2017,06,25,05,08,13.10
2017,06,25,05,09,13.00
2017,06,25,05,10,13.00
2017,06,25,05,11,12.90
2017,06,25,05,12,12.90
2017,06,25,05,13,12.90
2017,06,25,05,14,12.80
2017,06,25,05,15,12.80
2017,06,25,05,16,12.80
2017,06,25,05,17,12.80
2017,06,25,05,18,12.80
2017,06,25,05,19,12.80
2017,06,25,05,20,12.80
2017,06,25,05,21,12.80
2017,06,25,05,22,12.70
2017,06,25,05,23,12.70
2017,06,25,05,24,12.70
2017,06,25,05,25,12.70
2017,06,25,05,26,12.80
2017,06,25,05,27,12.80
2017,06,25,05,28,12.80
2017,06,25,05,29,12.80
2017,06,25,05,30,12.90
2017,06,25,05,31,12.90
2017,06,25,05,32,12.90
2017,06,25,05,33,13.00
2017,06,25,05,34,12.90
2017,06,25,05,35,12.90
2017,06,25,05,36,12.90
2017,06,25,05,37,12.90
2017,06,25,05,38,12.90
2017,06,25,05,39,12.90
2017,06,25,05,40,12.90
2017,06,25,05,41,12.90
2017,06,25,05,42,12.90
2017,06,25,05,43,12.80
2017,06,25,05,44,12.80
2017,06,25,05,45,12.80
2017,06,25,05,46,12.80
2017,06,25,05,47,12.80
2017,06,25,05,48,12.80
2017,06,25,05,49,12.80
2017,06,25,05,50,12.80
2017,06,25,05,51,12.90
2017,06,25,05,52,12.90
2017,06,25,05,53,13.00
2017,06,25,05,54,13.10
2017,06,25,05,55,13.30
2017,06,25,05,56,13.40
2017,06,25,05,57,13.50
2017,06,25,05,58,13.70
2017,06,25,05,59,13.80
2017,06,25,06,00,13.80
2017,06,25,06,01,13.80
2017,06,25,06,02,13.80
2017,06,25,06,03,13.80
2017,06,25,06,04,13.80
2017,06,25,06,05,13.80
2017,06,25,06,06,13.80
2017,06,25,06,07,13.80
2017,06,25,06,08,13.80
2017,06,25,06,09,13.70
2017,06,25,06,10,13.70
2017,06,25,06,11,13.70
2017,06,25,06,12,13.70
2017,06,25,06,13,13.70
2017,06,25,06,14,13.70
2017,06,25,06,15,13.70
2017,06,25,06,16,13.70
2017,06,25,06,17,13.70
2017,06,25,06,18,13.70
2017,06,25,06,19,13.80
2017,06,25,06,20,13.80
2017,06,25,06,21,13.80
2017,06,25,06,22,13.80
2017,06,25,06,23,13.80
2017,06,25,06,24,13.80
2017,06,25,06,25,13.90
2017,06,25,06,26,13.90
2017,06,25,06,27,13.90
2017,06,25,06,28,14.00
2017,06,25,06,29,14.00
2017,06,25,06,30,14.10
2017,06,25,06,31,14.10
2017,06,25,06,32,14.20
2017,06,25,06,33,14.20
2017,06,25,06,34,14.30
2017,06,25,06,35,14.30
2017,06,25,06,36,14.40
2017,06,25,06,37,14.40
2017,06,25,06,38,14.50
2017,06,25,06,39,14.60
2017,06,25,06,40,14.60
2017,06,25,06,41,14.70
2017,06,25,06,42,14.80
2017,06,25,06,43,14.80
2017,06,25,06,44,14.90
2017,06,25,06,45,15.00
2017,06,25,06,46,15.00
2017,06,25,06,47,15.00
2017,06,25,06,48,15.00
2017,06,25,06,49,15.00
2017,06,25,06,50,15.00
2017,06,25,06,51,15.00
2017,06,25,06,52,15.10
2017,06,25,06,53,15.20
2017,06,25,06,54,15.20
2017,06,25,06,55,15.30
2017,06,25,06,56,15.30
2017,06,25,06,57,15.30
2017,06,25,06,58,15.40
2017,06,25,06,59,15.40
2017,06,25,07,00,15.40
2017,06,25,07,01,15.50
2017,06,25,07,02,15.50
2017,06,25,07,03,15.60
2017,06,25,07,04,15.60
2017,06,25,07,05,15.70
2017,06,25,07,06,15.70
2017,06,25,07,07,15.70
2017,06,25,07,08,15.70
2017,06,25,07,09,15.80
2017,06,25,07,10,15.80
2017,06,25,07,11,15.80
2017,06,25,07,12,15.90
2017,06,25,07,13,15.90
2017,06,25,07,14,15.90
2017,06,25,07,15,16.00
2017,06,25,07,16,16.00
2017,06,25,07,17,16.10
2017,06,25,07,18,16.10
2017,06,25,07,19,16.20
2017,06,25,07,20,16.20
2017,06,25,07,21,16.30
2017,06,25,07,22,16.40
2017,06,25,07,23,16.40
2017,06,25,07,24,16.50
2017,06,25,07,25,16.60
2017,06,25,07,26,16.60
2017,06,25,07,27,16.70
2017,06,25,07,28,16.70
2017,06,25,07,29,16.80
2017,06,25,07,30,16.80
2017,06,25,07,31,16.90
2017,06,25,07,32,16.90
2017,06,25,07,33,17.00
2017,06,25,07,34,17.10
2017,06,25,07,35,17.20
2017,06,25,07,36,17.20
2017,06,25,07,37,17.30
2017,06,25,07,38,17.40
2017,06,25,07,39,17.50
2017,06,25,07,40,17.60
2017,06,25,07,41,17.70
2017,06,25,07,42,17.90
2017,06,25,07,43,18.00
2017,06,25,07,44,18.20
2017,06,25,07,45,18.30
2017,06,25,07,46,18.40
2017,06,25,07,47,18.50
2017,06,25,07,48,18.60
2017,06,25,07,49,18.60
2017,06,25,07,50,18.70
2017,06,25,07,51,18.80
2017,06,25,07,52,18.80
2017,06,25,07,53,18.90
2017,06,25,07,54,19.00
2017,06,25,07,55,19.10
2017,06,25,07,56,19.20
2017,06,25,07,57,19.30
2017,06,25,07,58,19.40
2017,06,25,07,59,19.50
2017,06,25,08,00,19.60
2017,06,25,08,01,19.70
2017,06,25,08,02,19.80
2017,06,25,08,03,19.80
2017,06,25,08,04,19.90
2017,06,25,08,05,20.00
2017,06,25,08,06,20.10
2017,06,25,08,07,20.10
2017,06,25,08,08,20.20
2017,06,25,08,09,20.20
2017,06,25,08,10,20.30
2017,06,25,08,11,20.30
2017,06,25,08,12,20.40
2017,06,25,08,13,20.50
2017,06,25,08,14,20.50
2017,06,25,08,15,20.60
2017,06,25,08,16,20.60
2017,06,25,08,17,20.60
2017,06,25,08,18,20.70
2017,06,25,08,19,20.70
2017,06,25,08,20,20.70
2017,06,25,08,21,20.70
2017,06,25,08,22,20.70
2017,06,25,08,23,20.80
2017,06,25,08,24,20.80
2017,06,25,08,25,20.80
2017,06,25,08,26,20.70
2017,06,25,08,27,20.80
2017,06,25,08,28,20.80
2017,06,25,08,29,20.80
2017,06,25,08,30,20.80
2017,06,25,08,31,20.90
2017,06,25,08,32,21.00
2017,06,25,08,33,21.00
2017,06,25,08,34,21.00
2017,06,25,08,35,21.00
2017,06,25,08,36,21.00
2017,06,25,08,37,21.10
2017,06,25,08,38,21.10
2017,06,25,08,39,21.10
2017,06,25,08,40,21.10
2017,06,25,08,41,21.10
2017,06,25,08,42,21.00
2017,06,25,08,43,20.80
2017,06,25,08,44,20.80
2017,06,25,08,45,20.80
2017,06,25,08,46,20.80
2017,06,25,08,47,20.80
2017,06,25,08,48,20.80
2017,06,25,08,49,20.80
2017,06,25,08,50,20.80
2017,06,25,08,51,20.70
2017,06,25,08,52,20.70
2017,06,25,08,53,20.70
2017,06,25,08,54,20.80
2017,06,25,08,55,20.80
2017,06,25,08,56,20.80
2017,06,25,08,57,20.80
2017,06,25,08,58,20.80
2017,06,25,08,59,20.80
2017,06,25,09,00,20.80
2017,06,25,09,01,20.90
2017,06,25,09,02,20.90
2017,06,25,09,03,21.00
2017,06,25,09,04,21.10
2017,06,25,09,05,21.10
2017,06,25,09,06,21.20
2017,06,25,09,07,21.20
2017,06,25,09,08,21.10
2017,06,25,09,09,21.10
2017,06,25,09,10,21.10
2017,06,25,09,11,21.10
2017,06,25,09,12,21.20
2017,06,25,09,13,21.30
2017,06,25,09,14,21.30
2017,06,25,09,15,21.20
2017,06,25,09,16,21.20
2017,06,25,09,17,21.20
2017,06,25,09,18,21.20
2017,06,25,09,19,21.20
2017,06,25,09,20,21.30
2017,06,25,09,21,21.30
2017,06,25,09,22,21.30
2017,06,25,09,23,21.40
2017,06,25,09,24,21.40
2017,06,25,09,25,21.40
2017,06,25,09,26,21.40
2017,06,25,09,27,21.40
2017,06,25,09,28,21.50
2017,06,25,09,29,21.60
2017,06,25,09,30,21.70
2017,06,25,09,31,21.80
2017,06,25,09,32,21.80
2017,06,25,09,33,21.80
2017,06,25,09,34,21.80
2017,06,25,09,35,21.80
2017,06,25,09,36,21.90
2017,06,25,09,37,21.90
2017,06,25,09,38,21.90
2017,06,25,09,39,22.00
2017,06,25,09,40,22.00
2017,06,25,09,41,22.00
2017,06,25,09,42,22.00
2017,06,25,09,43,22.10
2017,06,25,09,44,22.00
2017,06,25,09,45,22.00
2017,06,25,09,46,22.00
2017,06,25,09,47,22.00
2017,06,25,09,48,22.10
2017,06,25,09,49,22.20
2017,06,25,09,50,22.30
2017,06,25,09,51,22.40
2017,06,25,09,52,22.40
2017,06,25,09,53,22.50
2017,06,25,09,54,22.50
2017,06,25,09,55,22.40
2017,06,25,09,56,22.30
2017,06,25,09,57,22.30
2017,06,25,09,58,22.30
2017,06,25,09,59,22.40
2017,06,25,10,00,22.40
2017,06,25,10,01,22.40
2017,06,25,10,02,22.40
2017,06,25,10,03,22.20
2017,06,25,10,04,22.00
2017,06,25,10,05,21.90
2017,06,25,10,06,21.90
2017,06,25,10,07,21.90
2017,06,25,10,08,21.90
2017,06,25,10,09,22.00
2017,06,25,10,10,22.00
2017,06,25,10,11,22.00
2017,06,25,10,12,22.00
2017,06,25,10,13,22.00
2017,06,25,10,14,21.90
2017,06,25,10,15,22.00
2017,06,25,10,16,22.10
2017,06,25,10,17,22.20
2017,06,25,10,18,22.30
2017,06,25,10,19,22.20
2017,06,25,10,20,22.30
2017,06,25,10,21,22.30
2017,06,25,10,22,22.40
2017,06,25,10,23,22.30
2017,06,25,10,24,22.30
2017,06,25,10,25,22.30
2017,06,25,10,26,22.30
2017,06,25,10,27,22.40
2017,06,25,10,28,22.40
2017,06,25,10,29,22.50
2017,06,25,10,30,22.60
2017,06,25,10,31,22.70
2017,06,25,10,32,22.70
2017,06,25,10,33,22.70
2017,06,25,10,34,22.70
2017,06,25,10,35,22.70
2017,06,25,10,36,22.70
2017,06,25,10,37,22.60
2017,06,25,10,38,22.60
2017,06,25,10,39,22.70
2017,06,25,10,40,22.70
2017,06,25,10,41,22.80
2017,06,25,10,42,22.80
2017,06,25,10,43,22.90
2017,06,25,10,44,22.90
2017,06,25,10,45,22.90
2017,06,25,10,46,23.00
2017,06,25,10,47,23.00
2017,06,25,10,48,22.90
2017,06,25,10,49,22.90
2017,06,25,10,50,22.90
2017,06,25,10,51,22.80
2017,06,25,10,52,22.90
2017,06,25,10,53,22.90
2017,06,25,10,54,23.10
2017,06,25,10,55,23.20
2017,06,25,10,56,23.20
2017,06,25,10,57,23.30
2017,06,25,10,58,23.40
2017,06,25,10,59,23.50
2017,06,25,11,00,23.50
2017,06,25,11,01,23.60
2017,06,25,11,02,23.70
2017,06,25,11,03,23.70
2017,06,25,11,04,23.70
2017,06,25,11,05,23.70
2017,06,25,11,06,23.70
2017,06,25,11,07,23.70
2017,06,25,11,08,23.60
2017,06,25,11,09,23.50
2017,06,25,11,10,23.50
2017,06,25,11,11,23.50
2017,06,25,11,12,23.50
2017,06,25,11,13,23.50
2017,06,25,11,14,23.50
2017,06,25,11,15,23.40
2017,06,25,11,16,23.30
2017,06,25,11,17,23.20
2017,06,25,11,18,23.10
2017,06,25,11,19,23.00
2017,06,25,11,20,22.90
2017,06,25,11,21,22.90
2017,06,25,11,22,22.90
2017,06,25,11,23,22.90
2017,06,25,11,24,22.80
2017,06,25,11,25,22.80
2017,06,25,11,26,22.80
2017,06,25,11,27,22.80
2017,06,25,11,28,22.70
2017,06,25,11,29,22.70
2017,06,25,11,30,22.60
2017,06,25,11,31,22.60
2017,06,25,11,32,22.70
2017,06,25,11,33,22.80
2017,06,25,11,34,22.80
2017,06,25,11,35,22.90
2017,06,25,11,36,23.00
2017,06,25,11,37,23.10
2017,06,25,11,38,23.30
2017,06,25,11,39,23.40
2017,06,25,11,40,23.50
2017,06,25,11,41,23.50
2017,06,25,11,42,23.40
2017,06,25,11,43,23.40
2017,06,25,11,44,23.30
2017,06,25,11,45,23.40
2017,06,25,11,46,23.40
2017,06,25,11,47,23.40
2017,06,25,11,48,23.40
2017,06,25,11,49,23.40
2017,06,25,11,50,23.50
2017,06,25,11,51,23.50
2017,06,25,11,52,23.50
2017,06,25,11,53,23.60
2017,06,25,11,54,23.70
2017,06,25,11,55,23.70
2017,06,25,11,56,23.80
2017,06,25,11,57,23.90
2017,06,25,11,58,23.90
2017,06,25,11,59,24.00
2017,06,25,12,00,24.10
2017,06,25,12,01,24.20
2017,06,25,12,02,24.20
2017,06,25,12,03,24.20
2017,06,25,12,04,24.10
2017,06,25,12,05,24.00
2017,06,25,12,06,23.90
2017,06,25,12,07,23.90
2017,06,25,12,08,23.90
2017,06,25,12,09,23.80
2017,06,25,12,10,23.80
2017,06,25,12,11,23.80
2017,06,25,12,12,23.80
2017,06,25,12,13,23.80
2017,06,25,12,14,23.80
2017,06,25,12,15,23.80
2017,06,25,12,16,23.90
2017,06,25,12,17,23.90
2017,06,25,12,18,24.00
2017,06,25,12,19,24.00
2017,06,25,12,20,24.00
2017,06,25,12,21,24.10
2017,06,25,12,22,24.10
2017,06,25,12,23,24.20
2017,06,25,12,24,24.20
2017,06,25,12,25,24.20
2017,06,25,12,26,24.20
2017,06,25,12,27,24.20
2017,06,25,12,28,24.10
2017,06,25,12,29,24.00
2017,06,25,12,30,23.90
2017,06,25,12,31,23.90
2017,06,25,12,32,23.90
2017,06,25,12,33,23.80
2017,06,25,12,34,23.80
2017,06,25,12,35,23.80
2017,06,25,12,36,23.90
2017,06,25,12,37,24.00
2017,06,25,12,38,24.20
2017,06,25,12,39,24.30
2017,06,25,12,40,24.30
2017,06,25,12,41,24.40
2017,06,25,12,42,24.50
2017,06,25,12,43,24.60
2017,06,25,12,44,24.60
2017,06,25,12,45,24.60
2017,06,25,12,46,24.60
2017,06,25,12,47,24.50
2017,06,25,12,48,24.30
2017,06,25,12,49,24.30
2017,06,25,12,50,24.20
2017,06,25,12,51,24.10
2017,06,25,12,52,24.10
2017,06,25,12,53,24.10
2017,06,25,12,54,24.20
2017,06,25,12,55,24.20
2017,06,25,12,56,24.20
2017,06,25,12,57,24.20
2017,06,25,12,58,24.20
2017,06,25,12,59,24.20
2017,06,25,13,00,24.20
2017,06,25,13,01,24.20
2017,06,25,13,02,24.10
2017,06,25,13,03,24.10
2017,06,25,13,04,24.00
2017,06,25,13,05,24.10
2017,06,25,13,06,24.10
2017,06,25,13,07,24.20
2017,06,25,13,08,24.30
2017,06,25,13,09,24.40
2017,06,25,13,10,24.40
2017,06,25,13,11,24.50
2017,06,25,13,12,24.60
2017,06,25,13,13,24.70
2017,06,25,13,14,24.80
2017,06,25,13,15,24.80
2017,06,25,13,16,24.80
2017,06,25,13,17,24.90
2017,06,25,13,18,24.90
2017,06,25,13,19,25.00
2017,06,25,13,20,25.00
2017,06,25,13,21,25.10
2017,06,25,13,22,25.10
2017,06,25,13,23,25.20
2017,06,25,13,24,25.20
2017,06,25,13,25,25.30
2017,06,25,13,26,25.30
2017,06,25,13,27,25.30
2017,06,25,13,28,25.40
2017,06,25,13,29,25.40
2017,06,25,13,30,25.50
2017,06,25,13,31,25.50
2017,06,25,13,32,25.60
2017,06,25,13,33,25.60
2017,06,25,13,34,25.60
2017,06,25,13,35,25.60
2017,06,25,13,36,25.60
2017,06,25,13,37,25.60
2017,06,25,13,38,25.70
2017,06,25,13,39,25.70
2017,06,25,13,40,25.80
2017,06,25,13,41,25.80
2017,06,25,13,42,25.90
2017,06,25,13,43,25.90
2017,06,25,13,44,25.90
2017,06,25,13,45,25.90
2017,06,25,13,46,26.00
2017,06,25,13,47,26.20
2017,06,25,13,48,26.30
2017,06,25,13,49,26.40
2017,06,25,13,50,26.50
2017,06,25,13,51,26.60
2017,06,25,13,52,26.60
2017,06,25,13,53,26.60
2017,06,25,13,54,26.70
2017,06,25,13,55,26.70
2017,06,25,13,56,26.80
2017,06,25,13,57,26.80
2017,06,25,13,58,26.70
2017,06,25,13,59,26.70
2017,06,25,14,00,26.80
2017,06,25,14,01,26.80
2017,06,25,14,02,26.90
2017,06,25,14,03,27.10
2017,06,25,14,04,27.20
2017,06,25,14,05,27.30
2017,06,25,14,06,27.30
2017,06,25,14,07,27.30
2017,06,25,14,08,27.20
2017,06,25,14,09,27.10
2017,06,25,14,10,27.00
2017,06,25,14,11,27.00
2017,06,25,14,12,27.00
2017,06,25,14,13,26.90
2017,06,25,14,14,26.90
2017,06,25,14,15,26.90
2017,06,25,14,16,27.00
2017,06,25,14,17,27.00
2017,06,25,14,18,27.20
2017,06,25,14,19,27.30
2017,06,25,14,20,27.40
2017,06,25,14,21,27.50
2017,06,25,14,22,27.60
2017,06,25,14,23,27.70
2017,06,25,14,24,27.80
2017,06,25,14,25,27.90
2017,06,25,14,26,28.00
2017,06,25,14,27,28.20
2017,06,25,14,28,28.30
2017,06,25,14,29,28.40
2017,06,25,14,30,28.40
2017,06,25,14,31,28.50
2017,06,25,14,32,28.60
2017,06,25,14,33,28.60
2017,06,25,14,34,28.60
2017,06,25,14,35,28.60
2017,06,25,14,36,28.60
2017,06,25,14,37,28.60
2017,06,25,14,38,28.60
2017,06,25,14,39,28.60
2017,06,25,14,40,28.70
2017,06,25,14,41,28.70
2017,06,25,14,42,28.80
2017,06,25,14,43,28.90
2017,06,25,14,44,29.00
2017,06,25,14,45,29.00
2017,06,25,14,46,29.10
2017,06,25,14,47,29.10
2017,06,25,14,48,29.10
2017,06,25,14,49,29.00
2017,06,25,14,50,28.90
2017,06,25,14,51,28.80
2017,06,25,14,52,28.80
2017,06,25,14,53,28.80
2017,06,25,14,54,28.70
2017,06,25,14,55,28.70
2017,06,25,14,56,28.70
2017,06,25,14,57,28.60
2017,06,25,14,58,28.50
2017,06,25,14,59,28.50
2017,06,25,15,00,28.60
2017,06,25,15,01,28.60
2017,06,25,15,02,28.50
2017,06,25,15,03,28.50
2017,06,25,15,04,28.50
2017,06,25,15,05,28.50
2017,06,25,15,06,28.30
2017,06,25,15,07,28.30
2017,06,25,15,08,28.30
2017,06,25,15,09,28.30
2017,06,25,15,10,28.30
2017,06,25,15,11,28.30
2017,06,25,15,12,28.30
2017,06,25,15,13,28.40
2017,06,25,15,14,28.40
2017,06,25,15,15,28.50
2017,06,25,15,16,28.60
2017,06,25,15,17,28.60
2017,06,25,15,18,28.60
2017,06,25,15,19,28.50
2017,06,25,15,20,28.40
2017,06,25,15,21,28.40
2017,06,25,15,22,28.30
2017,06,25,15,23,28.30
2017,06,25,15,24,28.30
2017,06,25,15,25,28.40
2017,06,25,15,26,28.40
2017,06,25,15,27,28.30
2017,06,25,15,28,28.30
2017,06,25,15,29,28.30
2017,06,25,15,30,28.30
2017,06,25,15,31,28.30
2017,06,25,15,32,28.30
2017,06,25,15,33,28.40
2017,06,25,15,34,28.50
2017,06,25,15,35,28.60
2017,06,25,15,36,28.70
2017,06,25,15,37,28.80
2017,06,25,15,38,28.80
2017,06,25,15,39,28.80
2017,06,25,15,40,28.70
2017,06,25,15,41,28.60
2017,06,25,15,42,28.60
2017,06,25,15,43,28.50
2017,06,25,15,44,28.50
2017,06,25,15,45,28.40
2017,06,25,15,46,28.40
2017,06,25,15,47,28.40
2017,06,25,15,48,28.30
2017,06,25,15,49,28.30
2017,06,25,15,50,28.20
2017,06,25,15,51,28.20
2017,06,25,15,52,28.10
2017,06,25,15,53,28.00
2017,06,25,15,54,27.90
2017,06,25,15,55,27.80
2017,06,25,15,56,27.70
2017,06,25,15,57,27.60
2017,06,25,15,58,27.50
2017,06,25,15,59,27.30
2017,06,25,16,00,27.20
2017,06,25,16,01,27.20
2017,06,25,16,02,27.10
2017,06,25,16,03,27.00
2017,06,25,16,04,26.90
2017,06,25,16,05,26.80
2017,06,25,16,06,26.80
2017,06,25,16,07,26.70
2017,06,25,16,08,26.70
2017,06,25,16,09,26.70
2017,06,25,16,10,26.70
2017,06,25,16,11,26.70
2017,06,25,16,12,26.70
2017,06,25,16,13,26.80
2017,06,25,16,14,26.80
2017,06,25,16,15,26.90
2017,06,25,16,16,27.00
2017,06,25,16,17,27.10
2017,06,25,16,18,27.20
2017,06,25,16,19,27.20
2017,06,25,16,20,27.30
2017,06,25,16,21,27.40
2017,06,25,16,22,27.50
2017,06,25,16,23,27.60
2017,06,25,16,24,27.60
2017,06,25,16,25,27.70
2017,06,25,16,26,27.80
2017,06,25,16,27,27.80
2017,06,25,16,28,27.90
2017,06,25,16,29,27.90
2017,06,25,16,30,27.90
2017,06,25,16,31,28.10
2017,06,25,16,32,28.10
2017,06,25,16,33,28.20
2017,06,25,16,34,28.20
2017,06,25,16,35,28.20
2017,06,25,16,36,28.20
2017,06,25,16,37,28.20
2017,06,25,16,38,28.20
2017,06,25,16,39,28.10
2017,06,25,16,40,28.00
2017,06,25,16,41,27.90
2017,06,25,16,42,27.80
2017,06,25,16,43,27.80
2017,06,25,16,44,27.80
2017,06,25,16,45,27.70
2017,06,25,16,46,27.70
2017,06,25,16,47,27.80
2017,06,25,16,48,27.80
2017,06,25,16,49,27.80
2017,06,25,16,50,27.80
2017,06,25,16,51,27.80
2017,06,25,16,52,27.80
2017,06,25,16,53,27.70
2017,06,25,16,54,27.50
2017,06,25,16,55,27.40
2017,06,25,16,56,27.30
2017,06,25,16,57,27.20
2017,06,25,16,58,27.10
2017,06,25,16,59,27.10
2017,06,25,17,00,27.10
2017,06,25,17,01,27.10
2017,06,25,17,02,27.20
2017,06,25,17,03,27.20
2017,06,25,17,04,27.20
2017,06,25,17,05,27.20
2017,06,25,17,06,27.30
2017,06,25,17,07,27.30
2017,06,25,17,08,27.30
2017,06,25,17,09,27.40
2017,06,25,17,10,27.40
2017,06,25,17,11,27.40
2017,06,25,17,12,27.40
2017,06,25,17,13,27.30
2017,06,25,17,14,27.30
2017,06,25,17,15,27.30
2017,06,25,17,16,27.30
2017,06,25,17,17,27.30
2017,06,25,17,18,27.30
2017,06,25,17,19,27.30